TimeCST,TemperatureF,Dew PointF,Humidity,Sea Level PressureIn,VisibilityMPH,Wind Direction,Wind SpeedMPH,Gust SpeedMPH,PrecipitationIn,Events,Conditions,WindDirDegrees,DateUTC
12:53 AM,68.0,68.0,100,29.98,0.2,NE,3.5,-,N/A,Fog,Fog,50,2013-02-08 06:53:00
1:31 AM,68.0,68.0,100,29.99,0.5,Calm,Calm,-,N/A,Fog,Fog,0,2013-02-08 07:31:00
1:53 AM,68.0,68.0,100,29.99,0.2,Calm,Calm,-,N/A,Fog,Fog,0,2013-02-08 07:53:00
2:53 AM,68.0,66.9,96,30.00,0.2,NNW,4.6,-,N/A,Fog,Fog,340,2013-02-08 08:53:00
3:01 AM,68.0,66.2,94,30.01,0.5,NNW,4.6,-,N/A,Fog,Fog,330,2013-02-08 09:01:00
3:34 AM,68.0,68.0,100,30.02,0.8,NNW,4.6,-,N/A,,Mist,340,2013-02-08 09:34:00
3:50 AM,66.2,66.2,100,30.03,1.2,North,3.5,-,N/A,,Overcast,350,2013-02-08 09:50:00
3:53 AM,66.9,66.9,100,30.03,1.0,North,3.5,-,N/A,,Mist,350,2013-02-08 09:53:00
4:03 AM,68.0,68.0,100,30.03,0.8,North,3.5,-,N/A,,Mist,350,2013-02-08 10:03:00
4:22 AM,68.0,68.0,100,30.03,1.5,North,6.9,-,N/A,,Overcast,350,2013-02-08 10:22:00
4:26 AM,68.0,68.0,100,30.03,3.0,North,4.6,-,N/A,,Overcast,360,2013-02-08 10:26:00
4:53 AM,68.0,68.0,100,30.03,6.0,North,5.8,-,N/A,,Overcast,10,2013-02-08 10:53:00
5:22 AM,68.0,68.0,100,30.04,7.0,North,5.8,-,N/A,,Overcast,360,2013-02-08 11:22:00
5:43 AM,68.0,66.2,94,30.05,7.0,North,4.6,-,N/A,,Scattered Clouds,360,2013-02-08 11:43:00
5:53 AM,68.0,66.9,96,30.05,7.0,North,5.8,-,N/A,,Scattered Clouds,360,2013-02-08 11:53:00
6:31 AM,66.2,66.2,100,30.07,7.0,Calm,Calm,-,N/A,,Scattered Clouds,0,2013-02-08 12:31:00
6:35 AM,66.2,66.2,100,30.07,7.0,Calm,Calm,-,N/A,,Mostly Cloudy,0,2013-02-08 12:35:00
6:53 AM,68.0,66.0,93,30.08,7.0,North,4.6,-,N/A,,Overcast,350,2013-02-08 12:53:00
7:26 AM,68.0,66.2,94,30.09,6.0,NNW,3.5,-,N/A,,Mostly Cloudy,340,2013-02-08 13:26:00
7:47 AM,68.0,66.2,94,30.10,6.0,NNW,3.5,-,N/A,,Overcast,340,2013-02-08 13:47:00
7:53 AM,68.0,66.9,96,30.10,6.0,NNW,3.5,-,N/A,,Overcast,340,2013-02-08 13:53:00
8:04 AM,68.0,66.2,94,30.10,6.0,NNW,6.9,-,N/A,,Overcast,330,2013-02-08 14:04:00
8:11 AM,68.0,66.2,94,30.11,6.0,NNW,6.9,-,N/A,,Overcast,340,2013-02-08 14:11:00
8:19 AM,68.0,66.2,94,30.11,6.0,North,10.4,-,N/A,,Overcast,350,2013-02-08 14:19:00
8:28 AM,68.0,66.2,94,30.11,9.0,North,6.9,-,0.00,Rain,Light Rain,360,2013-02-08 14:28:00
8:40 AM,68.0,66.2,94,30.12,9.0,North,8.1,-,0.00,,Overcast,360,2013-02-08 14:40:00
8:53 AM,68.0,66.0,93,30.13,9.0,North,10.4,-,0.00,,Overcast,10,2013-02-08 14:53:00
9:21 AM,68.0,64.4,88,30.14,9.0,NNE,11.5,21.9,N/A,,Overcast,20,2013-02-08 15:21:00
9:45 AM,69.8,64.4,83,30.14,10.0,NNE,10.4,-,N/A,,Overcast,20,2013-02-08 15:45:00
9:53 AM,69.1,64.0,84,30.14,10.0,NNE,16.1,19.6,N/A,,Overcast,30,2013-02-08 15:53:00
10:20 AM,69.8,60.8,73,30.16,10.0,NNE,13.8,18.4,N/A,,Overcast,20,2013-02-08 16:20:00
10:53 AM,70.0,61.0,73,30.16,10.0,NNE,16.1,23.0,N/A,,Overcast,20,2013-02-08 16:53:00
11:00 AM,69.8,60.8,73,30.16,10.0,NNE,16.1,24.2,N/A,,Overcast,20,2013-02-08 17:00:00
11:11 AM,69.8,60.8,73,30.16,10.0,NNE,13.8,21.9,N/A,,Overcast,20,2013-02-08 17:11:00
11:28 AM,71.6,60.8,69,30.16,10.0,NNE,15.0,21.9,N/A,,Overcast,20,2013-02-08 17:28:00
11:53 AM,70.0,60.1,71,30.16,10.0,NNE,12.7,20.7,N/A,,Overcast,20,2013-02-08 17:53:00
12:25 PM,71.6,60.8,69,30.15,10.0,NE,11.5,-,N/A,,Overcast,50,2013-02-08 18:25:00
12:53 PM,72.0,60.1,66,30.14,10.0,NNE,11.5,-,N/A,,Overcast,30,2013-02-08 18:53:00
1:31 PM,71.6,59.0,64,30.13,10.0,NE,12.7,-,N/A,,Scattered Clouds,40,2013-02-08 19:31:00
1:53 PM,73.0,59.0,61,30.11,10.0,NE,16.1,21.9,N/A,,Clear,40,2013-02-08 19:53:00
2:53 PM,73.0,59.0,61,30.09,10.0,NE,12.7,-,N/A,,Clear,40,2013-02-08 20:53:00
3:53 PM,70.0,59.0,68,30.08,10.0,NE,12.7,-,N/A,,Clear,50,2013-02-08 21:53:00
4:53 PM,69.1,59.0,70,30.07,10.0,NE,11.5,-,N/A,,Clear,50,2013-02-08 22:53:00
5:53 PM,66.0,60.1,81,30.07,10.0,NE,11.5,-,N/A,,Clear,50,2013-02-08 23:53:00
6:42 PM,64.4,60.8,88,30.08,10.0,NE,9.2,-,N/A,,Mostly Cloudy,50,2013-02-09 00:42:00
6:53 PM,64.0,60.1,87,30.08,10.0,ENE,9.2,-,N/A,,Mostly Cloudy,60,2013-02-09 00:53:00
7:01 PM,64.4,60.8,88,30.08,10.0,ENE,11.5,-,N/A,,Scattered Clouds,60,2013-02-09 01:01:00
7:09 PM,64.4,60.8,88,30.08,10.0,ENE,9.2,-,N/A,,Mostly Cloudy,60,2013-02-09 01:09:00
7:53 PM,64.9,61.0,87,30.08,10.0,ENE,9.2,-,N/A,,Overcast,60,2013-02-09 01:53:00
8:21 PM,64.4,60.8,88,30.08,10.0,ENE,9.2,-,N/A,,Scattered Clouds,60,2013-02-09 02:21:00
8:53 PM,64.0,61.0,90,30.08,10.0,ENE,6.9,-,N/A,,Clear,60,2013-02-09 02:53:00
9:53 PM,63.0,61.0,93,30.07,7.0,ENE,5.8,-,N/A,,Clear,60,2013-02-09 03:53:00
10:53 PM,63.0,61.0,93,30.06,10.0,ENE,4.6,-,N/A,,Clear,60,2013-02-09 04:53:00
11:53 PM,62.1,61.0,96,30.05,9.0,Calm,Calm,-,N/A,,Clear,0,2013-02-09 05:53:00